26.02.2024 02:00:00 0,03
26.02.2024 04:45:00 0,03
26.02.2024 05:00:00 0,02
26.02.2024 12:00:00 0,02
26.02.2024 12:15:00 0,03
26.02.2024 15:30:00 0,03
26.02.2024 15:45:00 0,03
26.02.2024 17:30:00 0,03
26.02.2024 17:45:00 0,03
26.02.2024 18:30:00 0,03
26.02.2024 18:45:00 0,02
26.02.2024 22:45:00 0,02
26.02.2024 23:00:00 0,02
26.02.2024 23:45:00 0,02
27.02.2024 00:00:00 0,02
27.02.2024 00:30:00 0,02
27.02.2024 00:45:00 0,02
27.02.2024 01:00:00 0,02
27.02.2024 02:00:00 0,02
27.02.2024 02:15:00 0,01
27.02.2024 06:45:00 0,01
27.02.2024 07:00:00 0,01
27.02.2024 07:45:00 0,01
27.02.2024 08:00:00 0,01
27.02.2024 10:45:00 0,01
27.02.2024 11:00:00 0,02
27.02.2024 11:45:00 0,02
27.02.2024 12:00:00 0,04
27.02.2024 12:15:00 0,06
27.02.2024 12:30:00 0,07
27.02.2024 12:45:00 0,08
27.02.2024 13:00:00 0,08
27.02.2024 13:15:00 0,07
27.02.2024 13:30:00 0,07
27.02.2024 13:45:00 0,07
27.02.2024 14:00:00 0,06
27.02.2024 14:15:00 0,06
27.02.2024 14:30:00 0,05
27.02.2024 14:45:00 0,05
27.02.2024 15:00:00 0,05
27.02.2024 15:15:00 0,05
27.02.2024 15:30:00 0,05
27.02.2024 15:45:00 0,04
27.02.2024 16:15:00 0,04
27.02.2024 16:30:00 0,04
27.02.2024 17:15:00 0,04
27.02.2024 17:30:00 0,03
27.02.2024 18:15:00 0,03
27.02.2024 18:30:00 0,03
27.02.2024 20:15:00 0,03
27.02.2024 20:30:00 0,03
28.02.2024 01:00:00 0,03
28.02.2024 01:15:00 0,02
28.02.2024 03:45:00 0,02
28.02.2024 04:00:00 0,02
28.02.2024 11:00:00 0,02
28.02.2024 11:15:00 0,02
28.02.2024 12:30:00 0,02
28.02.2024 12:45:00 0,03
28.02.2024 13:00:00 0,03
28.02.2024 13:15:00 0,03
28.02.2024 13:45:00 0,03
28.02.2024 14:00:00 0,03
28.02.2024 14:30:00 0,03
28.02.2024 14:45:00 0,03
28.02.2024 15:45:00 0,03
28.02.2024 16:00:00 0,03
28.02.2024 23:00:00 0,03
28.02.2024 23:15:00 0,02
29.02.2024 02:15:00 0,02
29.02.2024 02:30:00 0,02
29.02.2024 12:15:00 0,02
29.02.2024 12:30:00 0,02
29.02.2024 12:45:00 0,02
29.02.2024 13:00:00 0,02
29.02.2024 23:15:00 0,02
29.02.2024 23:30:00 0,03
01.03.2024 01:45:00 0,03
01.03.2024 02:00:00 0,02
01.03.2024 19:15:00 0,02
01.03.2024 19:30:00 0,03
02.03.2024 00:45:00 0,03
02.03.2024 01:00:00 0,02
02.03.2024 04:45:00 0,02
02.03.2024 05:00:00 0,03
02.03.2024 06:30:00 0,03
02.03.2024 06:45:00 0,02
02.03.2024 21:00:00 0,02
02.03.2024 21:15:00 0,03
02.03.2024 21:30:00 0,03
02.03.2024 21:45:00 0,03
02.03.2024 22:00:00 0,03
02.03.2024 22:15:00 0,04
03.03.2024 00:45:00 0,04
03.03.2024 01:00:00 0,03
03.03.2024 02:30:00 0,03
03.03.2024 02:45:00 0,03
03.03.2024 04:15:00 0,03
03.03.2024 04:30:00 0,03
03.03.2024 08:00:00 0,03
03.03.2024 08:15:00 0,02
03.03.2024 08:45:00 0,02
03.03.2024 09:00:00 0,03
03.03.2024 09:30:00 0,03
03.03.2024 09:45:00 0,02
03.03.2024 10:00:00 0,03
03.03.2024 10:15:00 0,02
03.03.2024 12:30:00 0,02
03.03.2024 12:45:00 0,03
03.03.2024 13:00:00 0,02
04.03.2024 00:30:00 0,02
04.03.2024 00:45:00 0,02
04.03.2024 01:15:00 0,02
04.03.2024 01:30:00 0,02
04.03.2024 01:45:00 0,02
04.03.2024 06:00:00 0,02
04.03.2024 06:15:00 0,02
04.03.2024 09:45:00 0,02
04.03.2024 10:00:00 0,02
04.03.2024 10:15:00 0,02
04.03.2024 10:30:00 0,02
04.03.2024 10:45:00 0,02
04.03.2024 11:00:00 0,02
05.03.2024 03:45:00 0,02
05.03.2024 04:00:00 0,02
05.03.2024 07:30:00 0,02
05.03.2024 07:45:00 0,02
05.03.2024 08:00:00 0,02
05.03.2024 08:15:00 0,02
05.03.2024 08:30:00 0,02
05.03.2024 08:45:00 0,02
05.03.2024 09:00:00 0,02
05.03.2024 22:30:00 0,02
05.03.2024 22:45:00 0,02
06.03.2024 08:00:00 0,02
06.03.2024 08:15:00 0,02
07.03.2024 00:15:00 0,02
07.03.2024 00:30:00 0,02
07.03.2024 00:45:00 0,02
08.03.2024 00:00:00 0,02
08.03.2024 00:15:00 0,02
08.03.2024 00:45:00 0,02
08.03.2024 01:00:00 0,02
08.03.2024 01:15:00 0,02
08.03.2024 01:30:00 0,02
08.03.2024 01:45:00 0,02
08.03.2024 02:00:00 0,02
08.03.2024 08:30:00 0,02
08.03.2024 08:45:00 0,02
08.03.2024 09:00:00 0,02
08.03.2024 09:15:00 0,02
08.03.2024 11:30:00 0,02
08.03.2024 11:45:00 0,02
08.03.2024 12:00:00 0,02
08.03.2024 14:15:00 0,02
08.03.2024 14:30:00 0,03
08.03.2024 14:45:00 0,06
08.03.2024 15:00:00 0,08
08.03.2024 15:15:00 0,09
08.03.2024 15:30:00 0,09
08.03.2024 15:45:00 0,09
08.03.2024 16:00:00 0,07
08.03.2024 16:15:00 0,07
08.03.2024 16:30:00 0,06
08.03.2024 16:45:00 0,06
08.03.2024 17:00:00 0,05
08.03.2024 17:15:00 0,05
08.03.2024 17:30:00 0,05
08.03.2024 17:45:00 0,04
08.03.2024 18:00:00 0,04
08.03.2024 18:15:00 0,04
08.03.2024 19:00:00 0,04
08.03.2024 19:15:00 0,03
08.03.2024 19:30:00 0,04
08.03.2024 20:00:00 0,04
08.03.2024 20:15:00 0,03
08.03.2024 21:15:00 0,03
08.03.2024 21:30:00 0,03
08.03.2024 22:30:00 0,03
08.03.2024 22:45:00 0,03
09.03.2024 01:00:00 0,03
09.03.2024 01:15:00 0,02
09.03.2024 02:45:00 0,02
09.03.2024 03:00:00 0,02
09.03.2024 04:30:00 0,02
09.03.2024 04:45:00 0,02
09.03.2024 11:45:00 0,02
09.03.2024 12:00:00 0,02
09.03.2024 16:30:00 0,02
09.03.2024 16:45:00 0,02
09.03.2024 17:00:00 0,02
09.03.2024 17:15:00 0,02
09.03.2024 17:30:00 0,02
09.03.2024 18:15:00 0,02
09.03.2024 18:30:00 0,02
09.03.2024 18:45:00 0,02
09.03.2024 19:30:00 0,02
09.03.2024 19:45:00 0,02
09.03.2024 20:30:00 0,02
09.03.2024 20:45:00 0,02
09.03.2024 21:00:00 0,02
09.03.2024 21:15:00 0,02
09.03.2024 21:30:00 0,02
09.03.2024 22:15:00 0,02
09.03.2024 22:30:00 0,02
09.03.2024 23:00:00 0,02
09.03.2024 23:15:00 0,02
09.03.2024 23:45:00 0,02
10.03.2024 00:00:00 0,02
10.03.2024 01:15:00 0,02
10.03.2024 01:30:00 0,02
10.03.2024 09:45:00 0,02
10.03.2024 10:00:00 0,02
10.03.2024 10:15:00 0,02
10.03.2024 10:30:00 0,02
10.03.2024 10:45:00 0,02
10.03.2024 11:00:00 0,02
10.03.2024 11:15:00 0,02
10.03.2024 15:45:00 0,02
10.03.2024 16:00:00 0,02
10.03.2024 16:15:00 0,02
10.03.2024 16:30:00 0,02
10.03.2024 16:45:00 0,02
10.03.2024 18:00:00 0,02
10.03.2024 18:15:00 0,02
10.03.2024 18:30:00 0,02
10.03.2024 22:15:00 0,02
10.03.2024 22:30:00 0,02
11.03.2024 01:00:00 0,02
11.03.2024 01:15:00 0,02
11.03.2024 12:45:00 0,02
11.03.2024 13:00:00 0,02
11.03.2024 14:30:00 0,02
11.03.2024 14:45:00 0,02
11.03.2024 15:30:00 0,02
11.03.2024 15:45:00 0,03
11.03.2024 16:45:00 0,03
11.03.2024 17:00:00 0,03
11.03.2024 17:15:00 0,03
11.03.2024 17:30:00 0,03
11.03.2024 17:45:00 0,03
11.03.2024 18:00:00 0,04
11.03.2024 18:15:00 0,04
11.03.2024 18:30:00 0,04
11.03.2024 18:45:00 0,05
11.03.2024 19:00:00 0,05
11.03.2024 19:15:00 0,05
11.03.2024 19:30:00 0,06
11.03.2024 19:45:00 0,06
11.03.2024 20:00:00 0,07
11.03.2024 20:15:00 0,07
11.03.2024 20:30:00 0,08
11.03.2024 20:45:00 0,09
11.03.2024 21:00:00 0,09
11.03.2024 21:15:00 0,10
11.03.2024 21:30:00 0,11
11.03.2024 21:45:00 0,12
11.03.2024 22:00:00 0,13
11.03.2024 22:15:00 0,15
11.03.2024 22:30:00 0,15
11.03.2024 22:45:00 0,17
11.03.2024 23:00:00 0,18
11.03.2024 23:15:00 0,20
11.03.2024 23:30:00 0,21
11.03.2024 23:45:00 0,22
12.03.2024 00:00:00 0,25
12.03.2024 00:15:00 0,27
12.03.2024 00:30:00 0,30
12.03.2024 00:45:00 0,35
12.03.2024 01:00:00 0,39
12.03.2024 01:15:00 0,44
12.03.2024 01:30:00 0,49
12.03.2024 01:45:00 0,55
12.03.2024 02:00:00 0,61
12.03.2024 02:15:00 0,67
12.03.2024 02:30:00 0,72
12.03.2024 02:45:00 0,76
12.03.2024 03:00:00 0,81
12.03.2024 03:15:00 0,85
12.03.2024 03:30:00 0,88
12.03.2024 03:45:00 0,94
12.03.2024 04:00:00 0,97
12.03.2024 04:15:00 0,99
12.03.2024 04:30:00 1,03
12.03.2024 04:45:00 1,05
12.03.2024 05:00:00 1,07
12.03.2024 06:00:00 1,07
12.03.2024 06:15:00 1,05
12.03.2024 06:30:00 1,03
12.03.2024 06:45:00 1,03
12.03.2024 07:00:00 1,01
12.03.2024 07:15:00 0,99
12.03.2024 07:30:00 0,97
12.03.2024 07:45:00 0,96
12.03.2024 08:00:00 0,94
12.03.2024 08:15:00 0,92
12.03.2024 08:30:00 0,90
12.03.2024 08:45:00 0,88
12.03.2024 09:00:00 0,88
12.03.2024 09:15:00 0,87
12.03.2024 09:30:00 0,85
12.03.2024 09:45:00 0,83
12.03.2024 10:00:00 0,83
12.03.2024 10:15:00 0,81
12.03.2024 10:30:00 0,81
12.03.2024 10:45:00 0,80
12.03.2024 11:00:00 0,80
12.03.2024 11:15:00 0,78
12.03.2024 11:30:00 0,76
12.03.2024 11:45:00 0,76
12.03.2024 12:00:00 0,75
12.03.2024 12:30:00 0,75
12.03.2024 12:45:00 0,73
12.03.2024 13:00:00 0,73
12.03.2024 13:15:00 0,72
12.03.2024 13:45:00 0,72
12.03.2024 14:00:00 0,70
12.03.2024 14:45:00 0,70
12.03.2024 15:00:00 0,68
12.03.2024 15:30:00 0,68
12.03.2024 15:45:00 0,67
12.03.2024 16:15:00 0,67
12.03.2024 16:30:00 0,65
12.03.2024 17:00:00 0,65
12.03.2024 17:15:00 0,64
12.03.2024 17:30:00 0,64
12.03.2024 17:45:00 0,62
12.03.2024 18:15:00 0,62
12.03.2024 18:30:00 0,61
12.03.2024 18:45:00 0,61
12.03.2024 19:00:00 0,59
12.03.2024 19:30:00 0,59
12.03.2024 19:45:00 0,58
12.03.2024 20:30:00 0,58
12.03.2024 20:45:00 0,56
12.03.2024 21:00:00 0,56
12.03.2024 21:15:00 0,55
12.03.2024 21:30:00 0,55
12.03.2024 21:45:00 0,54
12.03.2024 22:00:00 0,54
12.03.2024 22:15:00 0,52
12.03.2024 22:30:00 0,52
12.03.2024 22:45:00 0,51
12.03.2024 23:00:00 0,51
12.03.2024 23:15:00 0,49
12.03.2024 23:30:00 0,49
12.03.2024 23:45:00 0,48
13.03.2024 00:00:00 0,48
13.03.2024 00:15:00 0,47
13.03.2024 00:45:00 0,47
13.03.2024 01:00:00 0,46
13.03.2024 01:15:00 0,44
13.03.2024 02:00:00 0,44
13.03.2024 02:15:00 0,43
13.03.2024 02:30:00 0,43
13.03.2024 02:45:00 0,42
13.03.2024 03:15:00 0,42
13.03.2024 03:30:00 0,41
13.03.2024 03:45:00 0,41
13.03.2024 04:00:00 0,39
13.03.2024 04:30:00 0,39
13.03.2024 04:45:00 0,38
13.03.2024 05:15:00 0,38
13.03.2024 05:30:00 0,37
13.03.2024 05:45:00 0,37
13.03.2024 06:00:00 0,36
13.03.2024 06:45:00 0,36
13.03.2024 07:00:00 0,35
13.03.2024 07:30:00 0,35
13.03.2024 07:45:00 0,33
13.03.2024 08:30:00 0,33
13.03.2024 08:45:00 0,32
13.03.2024 09:30:00 0,32
13.03.2024 09:45:00 0,31
13.03.2024 10:30:00 0,31
13.03.2024 10:45:00 0,30
13.03.2024 11:15:00 0,30
13.03.2024 11:30:00 0,29
13.03.2024 12:30:00 0,29
13.03.2024 12:45:00 0,28
13.03.2024 13:15:00 0,28
13.03.2024 13:30:00 0,27
13.03.2024 14:30:00 0,27
13.03.2024 14:45:00 0,26
13.03.2024 15:30:00 0,26
13.03.2024 15:45:00 0,25
13.03.2024 16:30:00 0,25
13.03.2024 16:45:00 0,24
13.03.2024 17:45:00 0,24
13.03.2024 18:00:00 0,23
13.03.2024 18:45:00 0,23
13.03.2024 19:00:00 0,22
13.03.2024 20:00:00 0,22
13.03.2024 20:15:00 0,21
13.03.2024 21:15:00 0,21
13.03.2024 21:30:00 0,20
13.03.2024 22:30:00 0,20
13.03.2024 22:45:00 0,20
13.03.2024 23:45:00 0,20
14.03.2024 00:00:00 0,19
14.03.2024 00:45:00 0,19
14.03.2024 01:00:00 0,18
14.03.2024 02:45:00 0,18
14.03.2024 03:00:00 0,17
14.03.2024 04:45:00 0,17
14.03.2024 05:00:00 0,16
14.03.2024 06:15:00 0,16
14.03.2024 06:30:00 0,15
14.03.2024 08:45:00 0,15
14.03.2024 09:00:00 0,15
14.03.2024 11:45:00 0,15
14.03.2024 12:00:00 0,14
14.03.2024 14:15:00 0,14
14.03.2024 14:30:00 0,13
14.03.2024 16:45:00 0,13
14.03.2024 17:00:00 0,12
14.03.2024 19:15:00 0,12
14.03.2024 19:30:00 0,12
14.03.2024 21:30:00 0,12
14.03.2024 21:45:00 0,11
15.03.2024 00:30:00 0,11
15.03.2024 00:45:00 0,10
15.03.2024 03:00:00 0,10
15.03.2024 03:15:00 0,10
15.03.2024 05:30:00 0,10
15.03.2024 05:45:00 0,09
15.03.2024 13:00:00 0,09
15.03.2024 13:15:00 0,09
15.03.2024 16:45:00 0,09
15.03.2024 17:00:00 0,08
15.03.2024 19:45:00 0,08
15.03.2024 20:00:00 0,07
15.03.2024 22:30:00 0,07
15.03.2024 22:45:00 0,07
16.03.2024 03:30:00 0,07
16.03.2024 03:45:00 0,07
16.03.2024 11:30:00 0,07
16.03.2024 11:45:00 0,08
16.03.2024 12:00:00 0,09
16.03.2024 12:15:00 0,11
16.03.2024 12:30:00 0,12
16.03.2024 12:45:00 0,14
16.03.2024 13:30:00 0,14
16.03.2024 13:45:00 0,13
16.03.2024 14:00:00 0,12
16.03.2024 14:15:00 0,12
16.03.2024 14:30:00 0,12
16.03.2024 14:45:00 0,11
16.03.2024 15:00:00 0,10
16.03.2024 15:15:00 0,10
16.03.2024 15:30:00 0,10
16.03.2024 15:45:00 0,10
16.03.2024 16:00:00 0,09
16.03.2024 16:30:00 0,09
16.03.2024 16:45:00 0,09
16.03.2024 18:00:00 0,09
16.03.2024 18:15:00 0,08
16.03.2024 21:30:00 0,08
16.03.2024 21:45:00 0,09
17.03.2024 00:15:00 0,09
17.03.2024 00:30:00 0,08
17.03.2024 03:15:00 0,08
17.03.2024 03:30:00 0,07
17.03.2024 14:15:00 0,07
17.03.2024 14:30:00 0,07
17.03.2024 14:45:00 0,07
17.03.2024 15:00:00 0,07
17.03.2024 15:15:00 0,07
17.03.2024 15:30:00 0,07
17.03.2024 15:45:00 0,07
17.03.2024 16:00:00 0,07
17.03.2024 20:15:00 0,07
17.03.2024 20:30:00 0,06
17.03.2024 23:45:00 0,06
18.03.2024 00:00:00 0,06
18.03.2024 01:15:00 0,06
18.03.2024 01:30:00 0,05
18.03.2024 01:45:00 0,05
18.03.2024 02:00:00 0,05
18.03.2024 02:15:00 0,05
18.03.2024 04:15:00 0,05
18.03.2024 04:30:00 0,06
18.03.2024 05:15:00 0,06
18.03.2024 05:30:00 0,05
18.03.2024 11:15:00 0,05
18.03.2024 11:30:00 0,06
18.03.2024 18:45:00 0,06
18.03.2024 19:00:00 0,05
18.03.2024 22:00:00 0,05
18.03.2024 22:15:00 0,05
18.03.2024 23:45:00 0,05
19.03.2024 00:00:00 0,05
19.03.2024 05:00:00 0,05
19.03.2024 05:15:00 0,04
19.03.2024 07:00:00 0,04
19.03.2024 07:15:00 0,05
19.03.2024 20:15:00 0,05
19.03.2024 20:30:00 0,04
19.03.2024 23:45:00 0,04
20.03.2024 00:00:00 0,04
20.03.2024 08:45:00 0,04
20.03.2024 09:00:00 0,04
20.03.2024 09:30:00 0,04
20.03.2024 09:45:00 0,04
20.03.2024 10:00:00 0,04
20.03.2024 10:15:00 0,04
20.03.2024 15:45:00 0,04
20.03.2024 16:00:00 0,05
20.03.2024 16:15:00 0,07
20.03.2024 16:30:00 0,09
20.03.2024 16:45:00 0,09
20.03.2024 17:00:00 0,09
20.03.2024 17:15:00 0,08
20.03.2024 17:30:00 0,07
20.03.2024 17:45:00 0,07
20.03.2024 18:00:00 0,06
20.03.2024 18:15:00 0,06
20.03.2024 18:30:00 0,05
20.03.2024 18:45:00 0,06
20.03.2024 19:00:00 0,06
20.03.2024 19:15:00 0,07
20.03.2024 19:30:00 0,07
20.03.2024 20:00:00 0,07
20.03.2024 20:15:00 0,07
20.03.2024 20:30:00 0,07
20.03.2024 20:45:00 0,06
20.03.2024 21:00:00 0,06
20.03.2024 21:15:00 0,06
20.03.2024 21:30:00 0,05
20.03.2024 21:45:00 0,05
20.03.2024 22:30:00 0,05
20.03.2024 22:45:00 0,05
20.03.2024 23:45:00 0,05
21.03.2024 00:00:00 0,04
21.03.2024 00:45:00 0,04
21.03.2024 01:00:00 0,04
21.03.2024 03:00:00 0,04
21.03.2024 03:15:00 0,03
21.03.2024 05:00:00 0,03
21.03.2024 05:15:00 0,03
21.03.2024 06:45:00 0,03
21.03.2024 07:00:00 0,03
21.03.2024 09:30:00 0,03
21.03.2024 09:45:00 0,04
21.03.2024 10:00:00 0,04
21.03.2024 10:15:00 0,03
21.03.2024 12:15:00 0,03
21.03.2024 12:30:00 0,04
21.03.2024 13:00:00 0,04
21.03.2024 13:15:00 0,04
21.03.2024 14:15:00 0,04
21.03.2024 14:30:00 0,05
21.03.2024 14:45:00 0,06
21.03.2024 15:00:00 0,07
21.03.2024 15:15:00 0,09
21.03.2024 16:15:00 0,09
21.03.2024 16:30:00 0,08
21.03.2024 16:45:00 0,07
21.03.2024 17:00:00 0,07
21.03.2024 17:15:00 0,07
21.03.2024 17:30:00 0,07
21.03.2024 17:45:00 0,06
21.03.2024 18:00:00 0,06
21.03.2024 18:15:00 0,06
21.03.2024 18:30:00 0,06
21.03.2024 18:45:00 0,05
21.03.2024 19:00:00 0,05
21.03.2024 19:15:00 0,05
21.03.2024 19:45:00 0,05
21.03.2024 20:00:00 0,05
21.03.2024 23:30:00 0,05
21.03.2024 23:45:00 0,04
22.03.2024 00:15:00 0,04
22.03.2024 00:30:00 0,04
22.03.2024 01:00:00 0,04
22.03.2024 01:15:00 0,03
22.03.2024 02:45:00 0,03
22.03.2024 03:00:00 0,03
22.03.2024 04:15:00 0,03
22.03.2024 04:30:00 0,03
22.03.2024 07:30:00 0,03
22.03.2024 07:45:00 0,02
22.03.2024 08:00:00 0,03
22.03.2024 13:30:00 0,03
22.03.2024 13:45:00 0,03
22.03.2024 14:00:00 0,03
22.03.2024 14:15:00 0,03
22.03.2024 14:30:00 0,03
22.03.2024 14:45:00 0,03
22.03.2024 23:15:00 0,03
22.03.2024 23:30:00 0,03
23.03.2024 01:15:00 0,03
23.03.2024 01:30:00 0,02
23.03.2024 03:30:00 0,02
23.03.2024 03:45:00 0,02
23.03.2024 08:15:00 0,02
23.03.2024 08:30:00 0,02
23.03.2024 10:45:00 0,02
23.03.2024 11:00:00 0,03
23.03.2024 16:00:00 0,03
23.03.2024 16:15:00 0,03
23.03.2024 16:45:00 0,03
23.03.2024 17:00:00 0,03
23.03.2024 18:30:00 0,03
23.03.2024 18:45:00 0,03
23.03.2024 19:00:00 0,03
23.03.2024 19:15:00 0,03
23.03.2024 21:45:00 0,03
23.03.2024 22:00:00 0,04
23.03.2024 22:15:00 0,04
23.03.2024 22:30:00 0,04
23.03.2024 22:45:00 0,04
23.03.2024 23:00:00 0,05
23.03.2024 23:15:00 0,05
23.03.2024 23:30:00 0,05
23.03.2024 23:45:00 0,05
24.03.2024 00:30:00 0,05
24.03.2024 00:45:00 0,06
24.03.2024 01:00:00 0,06
24.03.2024 01:15:00 0,06
24.03.2024 01:30:00 0,07
24.03.2024 01:45:00 0,08
24.03.2024 02:00:00 0,09
24.03.2024 02:15:00 0,09
24.03.2024 02:30:00 0,10
24.03.2024 02:45:00 0,10
24.03.2024 03:00:00 0,10
24.03.2024 03:15:00 0,10
24.03.2024 03:30:00 0,11
24.03.2024 03:45:00 0,11
24.03.2024 04:00:00 0,12
24.03.2024 04:15:00 0,12
24.03.2024 04:30:00 0,12
24.03.2024 04:45:00 0,13
24.03.2024 05:00:00 0,14
24.03.2024 05:15:00 0,15
24.03.2024 05:30:00 0,15
24.03.2024 05:45:00 0,16
24.03.2024 06:00:00 0,17
24.03.2024 06:15:00 0,18
24.03.2024 06:30:00 0,19
24.03.2024 06:45:00 0,19
24.03.2024 07:00:00 0,20
24.03.2024 07:15:00 0,20
24.03.2024 07:30:00 0,20
24.03.2024 09:45:00 0,20
24.03.2024 10:00:00 0,20
24.03.2024 10:45:00 0,20
24.03.2024 11:00:00 0,19
24.03.2024 11:45:00 0,19
24.03.2024 12:00:00 0,18
24.03.2024 12:30:00 0,18
24.03.2024 12:45:00 0,17
24.03.2024 13:30:00 0,17
24.03.2024 13:45:00 0,16
24.03.2024 14:30:00 0,16
24.03.2024 14:45:00 0,17
24.03.2024 15:00:00 0,18
24.03.2024 15:30:00 0,18
24.03.2024 15:45:00 0,17
24.03.2024 17:15:00 0,17
24.03.2024 17:30:00 0,18
24.03.2024 17:45:00 0,18
24.03.2024 18:00:00 0,19
24.03.2024 18:15:00 0,19
24.03.2024 18:30:00 0,20
24.03.2024 23:00:00 0,20
24.03.2024 23:15:00 0,20
25.03.2024 02:00:00 0,20
25.03.2024 02:15:00 0,20
25.03.2024 05:00:00 0,20
25.03.2024 05:15:00 0,19
25.03.2024 06:45:00 0,19
25.03.2024 07:00:00 0,18
25.03.2024 09:00:00 0,18
25.03.2024 09:15:00 0,17
25.03.2024 09:45:00 0,17
25.03.2024 10:00:00 0,16
25.03.2024 11:15:00 0,16
25.03.2024 11:30:00 0,15
25.03.2024 14:00:00 0,15
25.03.2024 14:15:00 0,16
25.03.2024 15:45:00 0,16
25.03.2024 16:00:00 0,15
25.03.2024 16:30:00 0,15
25.03.2024 16:45:00 0,15
25.03.2024 17:45:00 0,15
25.03.2024 18:00:00 0,14
25.03.2024 19:00:00 0,14
25.03.2024 19:15:00 0,13
25.03.2024 20:30:00 0,13
25.03.2024 20:45:00 0,12
25.03.2024 21:45:00 0,12
25.03.2024 22:00:00 0,12
25.03.2024 23:30:00 0,12
25.03.2024 23:45:00 0,11
26.03.2024 01:00:00 0,11
26.03.2024 01:15:00 0,10
26.03.2024 03:30:00 0,10
26.03.2024 03:45:00 0,10
26.03.2024 05:45:00 0,10
26.03.2024 06:00:00 0,09
26.03.2024 08:30:00 0,09
26.03.2024 08:45:00 0,10
26.03.2024 12:15:00 0,10
26.03.2024 12:30:00 0,09
26.03.2024 15:15:00 0,09
26.03.2024 15:30:00 0,09
26.03.2024 19:00:00 0,09
26.03.2024 19:15:00 0,08
26.03.2024 21:30:00 0,08
26.03.2024 21:45:00 0,07
26.03.2024 23:30:00 0,07
26.03.2024 23:45:00 0,07
27.03.2024 01:15:00 0,07
27.03.2024 01:30:00 0,06
27.03.2024 04:00:00 0,06
27.03.2024 04:15:00 0,06
27.03.2024 09:15:00 0,06
27.03.2024 09:30:00 0,06
27.03.2024 15:15:00 0,06
27.03.2024 15:30:00 0,06
27.03.2024 15:45:00 0,06
27.03.2024 16:00:00 0,06
27.03.2024 21:00:00 0,06
27.03.2024 21:15:00 0,05
27.03.2024 21:30:00 0,06
28.03.2024 01:15:00 0,06
28.03.2024 01:30:00 0,06
28.03.2024 01:45:00 0,06
28.03.2024 02:00:00 0,06
28.03.2024 02:15:00 0,06
28.03.2024 02:30:00 0,06
28.03.2024 02:45:00 0,06
28.03.2024 03:00:00 0,06
28.03.2024 03:15:00 0,06
28.03.2024 03:30:00 0,06
28.03.2024 03:45:00 0,07
28.03.2024 04:00:00 0,07
28.03.2024 04:15:00 0,07
28.03.2024 04:30:00 0,07
28.03.2024 04:45:00 0,07
28.03.2024 05:00:00 0,07
28.03.2024 05:15:00 0,06
28.03.2024 05:30:00 0,06
28.03.2024 05:45:00 0,06
28.03.2024 06:00:00 0,06
28.03.2024 06:15:00 0,07
28.03.2024 06:30:00 0,07
28.03.2024 06:45:00 0,07
28.03.2024 07:00:00 0,07
28.03.2024 07:15:00 0,07
28.03.2024 07:30:00 0,07
28.03.2024 07:45:00 0,07
28.03.2024 08:00:00 0,07
28.03.2024 08:15:00 0,07
28.03.2024 08:30:00 0,07
28.03.2024 08:45:00 0,07
28.03.2024 09:00:00 0,07
28.03.2024 09:15:00 0,07
28.03.2024 09:30:00 0,07
28.03.2024 09:45:00 0,07
28.03.2024 10:00:00 0,07
28.03.2024 10:15:00 0,07
28.03.2024 10:30:00 0,07
28.03.2024 10:45:00 0,07
28.03.2024 11:00:00 0,07
28.03.2024 11:15:00 0,07
28.03.2024 11:30:00 0,07
28.03.2024 11:45:00 0,07
28.03.2024 12:00:00 0,07
28.03.2024 12:15:00 0,07
